N1980K KLAX-KTRM

Flight info

Callsign N1980K
Flight time N/A
Altitude 17000
Route LAXX1 TRM CLOWD1
Aircraft GLF6/M-SBDE2E3FGHIJ4J5M1RWXY/LB1D1

Departure

Time 2026-04-20 21:36
Airport Los Angeles International Airport (KLAX)

Arrival

Time N/A
Airport Jacqueline Cochran Regional Airport (KTRM)
Time Latitude Longitude Altitude Speed Heading
2026-04-20 21:23 33.93340 -118.39945 122 ft 0 kts 264°
2026-04-20 21:31 33.93335 -118.39953 122 ft 3 kts 217°
2026-04-20 21:32 33.93317 -118.39918 123 ft 6 kts 62°
2026-04-20 21:32 33.93332 -118.39893 122 ft 8 kts 49°
2026-04-20 21:32 33.93400 -118.39816 120 ft 16 kts 14°
2026-04-20 21:32 33.93464 -118.39743 118 ft 15 kts 84°
2026-04-20 21:33 33.93476 -118.39617 115 ft 15 kts 83°
2026-04-20 21:33 33.93490 -118.39485 112 ft 16 kts 82°
2026-04-20 21:33 33.93504 -118.39346 110 ft 16 kts 83°
2026-04-20 21:33 33.93518 -118.39209 109 ft 16 kts 83°
2026-04-20 21:34 33.93538 -118.39117 109 ft 8 kts 49°
2026-04-20 21:34 33.93553 -118.39105 109 ft 0 kts 23°
2026-04-20 21:34 33.93553 -118.39104 109 ft 0 kts 23°
2026-04-20 21:35 33.93577 -118.39101 109 ft 10 kts 356°
2026-04-20 21:36 33.93641 -118.39185 110 ft 13 kts 264°
2026-04-20 21:36 33.93629 -118.39315 111 ft 55 kts 263°
2026-04-20 21:36 33.93538 -118.40223 145 ft 155 kts 263°
2026-04-20 21:36 33.93388 -118.41627 846 ft 186 kts 263°
2026-04-20 21:37 33.93201 -118.43098 1311 ft 176 kts 255°
2026-04-20 21:37 33.92514 -118.44442 1858 ft 199 kts 232°
2026-04-20 21:37 33.91663 -118.45779 2356 ft 204 kts 232°
2026-04-20 21:37 33.90810 -118.47124 2785 ft 202 kts 233°
2026-04-20 21:38 33.89914 -118.48537 2994 ft 218 kts 233°
2026-04-20 21:38 33.88990 -118.49992 2971 ft 214 kts 232°
2026-04-20 21:38 33.87789 -118.50991 2919 ft 214 kts 191°
2026-04-20 21:38 33.86317 -118.51001 2987 ft 212 kts 180°
2026-04-20 21:39 33.84913 -118.51504 2990 ft 213 kts 210°
2026-04-20 21:39 33.83618 -118.52487 3453 ft 239 kts 212°
2026-04-20 21:39 33.82138 -118.53631 3998 ft 259 kts 212°
2026-04-20 21:39 33.80620 -118.54800 4499 ft 258 kts 212°
2026-04-20 21:40 33.79114 -118.55954 4994 ft 255 kts 212°
2026-04-20 21:40 33.77630 -118.57083 5485 ft 256 kts 212°
2026-04-20 21:40 33.76102 -118.58237 5987 ft 258 kts 212°
2026-04-20 21:40 33.74582 -118.59380 6483 ft 259 kts 212°
2026-04-20 21:41 33.73061 -118.60525 7125 ft 257 kts 212°
2026-04-20 21:41 33.71560 -118.61661 7861 ft 260 kts 212°
2026-04-20 21:41 33.70005 -118.62843 8611 ft 263 kts 212°
2026-04-20 21:41 33.68449 -118.64031 9353 ft 266 kts 212°
2026-04-20 21:42 33.66911 -118.65211 10080 ft 267 kts 212°
2026-04-20 21:42 33.65306 -118.66447 10811 ft 269 kts 212°
2026-04-20 21:42 33.63728 -118.67664 10970 ft 275 kts 212°
2026-04-20 21:42 33.62177 -118.68801 10957 ft 271 kts 204°
2026-04-20 21:43 33.60316 -118.69087 10980 ft 280 kts 171°
2026-04-20 21:43 33.58545 -118.68038 10980 ft 290 kts 139°
2026-04-20 21:43 33.57496 -118.65966 10967 ft 298 kts 108°
2026-04-20 21:43 33.57341 -118.63463 10987 ft 302 kts 92°
2026-04-20 21:44 33.57377 -118.60948 10969 ft 302 kts 91°
2026-04-20 21:44 33.57650 -118.58417 10953 ft 327 kts 71°
2026-04-20 21:44 33.58912 -118.55940 10996 ft 361 kts 54°
2026-04-20 21:44 33.60396 -118.53504 10975 ft 361 kts 56°
2026-04-20 21:45 33.61842 -118.51040 10970 ft 357 kts 56°
2026-04-20 21:45 33.63255 -118.48585 10965 ft 354 kts 57°
2026-04-20 21:45 33.64641 -118.46114 10965 ft 354 kts 61°
2026-04-20 21:45 33.65417 -118.43368 10973 ft 349 kts 81°
2026-04-20 21:46 33.65856 -118.40499 10977 ft 351 kts 82°
2026-04-20 21:46 33.66293 -118.37614 10974 ft 350 kts 82°
2026-04-20 21:46 33.66724 -118.34739 10972 ft 350 kts 82°
2026-04-20 21:46 33.67143 -118.31975 10971 ft 349 kts 82°